When you browse on this site, cookies collect data to enhance your experience and personalize the content and advertising you see.
Visit our Privacy Policy to learn more. By continuing to use the site, you agree to this use of cookies and data.

Meteo pe oră la Grand Bassam

Astăzi, 4 August, Marţi

Timp Temperatura Precipitaţii Vânt Presiune Umiditate
00:00 +24°C° 0 mm 3 m/s 762 mmHg 85%
01:00 +24°C° 0 mm 3 m/s 762 mmHg 85%
02:00 +24°C° 0 mm 3 m/s 761 mmHg 84%
03:00 +23°C° 0 mm 4 m/s 761 mmHg 84%
04:00 +24°C° 0 mm 3 m/s 761 mmHg 85%
05:00 +24°C° 0 mm 3 m/s 761 mmHg 85%
06:00 +22°C° 0 mm 3 m/s 762 mmHg 87%
07:00 +25°C° 0 mm 3 m/s 762 mmHg 81%
08:00 +26°C° 0 mm 3 m/s 762 mmHg 75%
09:00 +27°C° 0 mm 4 m/s 763 mmHg 68%
10:00 +28°C° 0 mm 4 m/s 762 mmHg 66%
11:00 +28°C° 0 mm 4 m/s 762 mmHg 64%
12:00 +29°C° 0 mm 3 m/s 762 mmHg 58%
13:00 +29°C° 0 mm 3 m/s 761 mmHg 59%
14:00 +29°C° 0 mm 4 m/s 761 mmHg 59%
15:00 +29°C° 0 mm 4 m/s 760 mmHg 60%
16:00 +28°C° 0 mm 4 m/s 760 mmHg 64%
17:00 +27°C° 0 mm 4 m/s 760 mmHg 69%
18:00 +26°C° 0 mm 4 m/s 760 mmHg 74%
19:00 +25°C° 0 mm 4 m/s 760 mmHg 77%
20:00 +25°C° 0 mm 4 m/s 760 mmHg 81%
21:00 +24°C° 0 mm 3 m/s 761 mmHg 84%
22:00 +24°C° 0 mm 3 m/s 761 mmHg 85%
23:00 +24°C° 0 mm 3 m/s 761 mmHg 86%

Mâine, 5 August, Miercuri

Timp Temperatura Precipitaţii Vânt Presiune Umiditate
00:00 +22°C° 0 mm 3 m/s 762 mmHg 87%
01:00 +22°C° 0 mm 3 m/s 761 mmHg 88%
02:00 +22°C° 0 mm 3 m/s 761 mmHg 88%
03:00 +22°C° 0 mm 3 m/s 760 mmHg 89%
04:00 +22°C° 0 mm 3 m/s 761 mmHg 89%
05:00 +22°C° 0 mm 3 m/s 761 mmHg 90%
06:00 +22°C° 0 mm 3 m/s 761 mmHg 90%
07:00 +24°C° 0 mm 3 m/s 761 mmHg 83%
08:00 +25°C° 0 mm 3 m/s 762 mmHg 77%
09:00 +27°C° 0 mm 3 m/s 762 mmHg 70%
10:00 +28°C° 0 mm 4 m/s 762 mmHg 67%
11:00 +28°C° 0 mm 4 m/s 762 mmHg 64%
12:00 +29°C° 0 mm 4 m/s 762 mmHg 61%
13:00 +29°C° 0 mm 4 m/s 761 mmHg 62%
14:00 +29°C° 0 mm 5 m/s 760 mmHg 63%
15:00 +28°C° 0 mm 5 m/s 760 mmHg 64%
16:00 +28°C° 0 mm 5 m/s 760 mmHg 67%
17:00 +27°C° 0 mm 5 m/s 760 mmHg 70%
18:00 +26°C° 0 mm 5 m/s 760 mmHg 74%
19:00 +25°C° 0 mm 5 m/s 760 mmHg 76%
20:00 +25°C° 0 mm 5 m/s 761 mmHg 78%
21:00 +25°C° 0 mm 5 m/s 761 mmHg 81%
22:00 +23°C° 0 mm 5 m/s 761 mmHg 81%
23:00 +23°C° 0 mm 4 m/s 762 mmHg 82%

Poimâine, 6 August, Joi

Timp Temperatura Precipitaţii Vânt Presiune Umiditate
00:00 +23°C° 0 mm 4 m/s 762 mmHg 82%
01:00 +23°C° 0 mm 4 m/s 761 mmHg 83%
02:00 +23°C° 0 mm 4 m/s 761 mmHg 83%
03:00 +23°C° 0 mm 4 m/s 760 mmHg 83%
04:00 +23°C° 0 mm 4 m/s 761 mmHg 82%
05:00 +23°C° 0 mm 4 m/s 761 mmHg 81%
06:00 +23°C° 0 mm 4 m/s 761 mmHg 79%
07:00 +25°C° 0 mm 4 m/s 761 mmHg 76%
08:00 +25°C° 0 mm 4 m/s 762 mmHg 73%
09:00 +26°C° 0 mm 4 m/s 762 mmHg 70%
10:00 +26°C° 0 mm 4 m/s 762 mmHg 69%
11:00 +27°C° 0 mm 4 m/s 762 mmHg 67%
12:00 +27°C° 0 mm 4 m/s 762 mmHg 66%
13:00 +27°C° 0 mm 4 m/s 762 mmHg 66%
14:00 +27°C° 0 mm 4 m/s 761 mmHg 66%
15:00 +27°C° 0 mm 5 m/s 760 mmHg 66%
16:00 +27°C° 0 mm 4 m/s 760 mmHg 68%
17:00 +26°C° 0 mm 4 m/s 760 mmHg 70%
18:00 +26°C° 0 mm 4 m/s 760 mmHg 72%
19:00 +25°C° 0 mm 3 m/s 761 mmHg 76%
20:00 +24°C° 0 mm 3 m/s 761 mmHg 80%
21:00 +24°C° 0 mm 3 m/s 762 mmHg 84%
22:00 +22°C° 0 mm 3 m/s 762 mmHg 85%
23:00 +22°C° 0 mm 3 m/s 762 mmHg 85%

7 August, Vineri

Timp Temperatura Precipitaţii Vânt Presiune Umiditate
00:00 +22°C° 0 mm 3 m/s 762 mmHg 86%
01:00 +22°C° 0 mm 3 m/s 762 mmHg 86%
02:00 +22°C° 0 mm 3 m/s 761 mmHg 87%
03:00 +22°C° 0 mm 4 m/s 761 mmHg 87%
04:00 +22°C° 0 mm 3 m/s 761 mmHg 87%
05:00 +22°C° 0 mm 3 m/s 761 mmHg 88%
06:00 +22°C° 0 mm 3 m/s 761 mmHg 88%
07:00 +24°C° 0 mm 3 m/s 761 mmHg 82%
08:00 +25°C° 0 mm 4 m/s 762 mmHg 76%
09:00 +27°C° 0 mm 4 m/s 762 mmHg 70%
10:00 +27°C° 0 mm 4 m/s 762 mmHg 67%
11:00 +28°C° 0 mm 4 m/s 762 mmHg 65%
12:00 +28°C° 0 mm 4 m/s 762 mmHg 62%
13:00 +28°C° 0 mm 4 m/s 761 mmHg 62%
14:00 +28°C° 0 mm 4 m/s 761 mmHg 62%
15:00 +28°C° 0 mm 4 m/s 760 mmHg 62%
16:00 +28°C° 0 mm 4 m/s 760 mmHg 65%
17:00 +27°C° 0 mm 4 m/s 760 mmHg 69%
18:00 +26°C° 0 mm 3 m/s 760 mmHg 72%
19:00 +26°C° 0 mm 3 m/s 761 mmHg 76%
20:00 +25°C° 0 mm 3 m/s 762 mmHg 79%
21:00 +25°C° 0 mm 3 m/s 762 mmHg 82%
22:00 +24°C° 0 mm 3 m/s 762 mmHg 83%
23:00 +24°C° 0 mm 3 m/s 762 mmHg 84%

8 August, Sâmbătă

Timp Temperatura Precipitaţii Vânt Presiune Umiditate
00:00 +24°C° 0 mm 3 m/s 762 mmHg 86%
01:00 +24°C° 0 mm 3 m/s 761 mmHg 85%
02:00 +24°C° 0 mm 3 m/s 761 mmHg 85%
03:00 +24°C° 0 mm 3 m/s 760 mmHg 85%
04:00 +24°C° 0 mm 3 m/s 761 mmHg 85%
05:00 +24°C° 0 mm 3 m/s 761 mmHg 85%
06:00 +24°C° 0 mm 3 m/s 761 mmHg 86%
07:00 +25°C° 0 mm 3 m/s 762 mmHg 79%
08:00 +27°C° 0 mm 3 m/s 762 mmHg 73%
09:00 +28°C° 0 mm 3 m/s 763 mmHg 66%
10:00 +28°C° 0.2 mm 4 m/s 763 mmHg 67%
11:00 +28°C° 0.2 mm 4 m/s 762 mmHg 67%
12:00 +28°C° 0.2 mm 4 m/s 762 mmHg 67%
13:00 +28°C° 0.1 mm 4 m/s 762 mmHg 69%
14:00 +27°C° 0.1 mm 4 m/s 761 mmHg 70%
15:00 +27°C° 0.1 mm 4 m/s 761 mmHg 72%
16:00 +26°C° 0 mm 4 m/s 761 mmHg 74%
17:00 +26°C° 0 mm 4 m/s 761 mmHg 76%
18:00 +26°C° 0 mm 4 m/s 761 mmHg 78%
19:00 +26°C° 0 mm 3 m/s 761 mmHg 79%
20:00 +26°C° 0 mm 3 m/s 762 mmHg 79%
21:00 +25°C° 0 mm 3 m/s 762 mmHg 79%
22:00 +25°C° 0 mm 3 m/s 762 mmHg 81%
23:00 +25°C° 0 mm 3 m/s 762 mmHg 82%

9 August, Duminică

Timp Temperatura Precipitaţii Vânt Presiune Umiditate
00:00 +25°C° 0 mm 3 m/s 762 mmHg 84%
01:00 +25°C° 0 mm 3 m/s 761 mmHg 85%
02:00 +25°C° 0 mm 3 m/s 761 mmHg 86%
03:00 +25°C° 0 mm 3 m/s 760 mmHg 87%
04:00 +25°C° 0 mm 3 m/s 761 mmHg 88%
05:00 +24°C° 0 mm 3 m/s 761 mmHg 89%
06:00 +24°C° 0 mm 3 m/s 761 mmHg 89%
07:00 +25°C° 0.1 mm 3 m/s 761 mmHg 84%
08:00 +26°C° 0.1 mm 3 m/s 762 mmHg 78%
09:00 +27°C° 0.1 mm 3 m/s 762 mmHg 73%
10:00 +27°C° 0.1 mm 4 m/s 762 mmHg 73%
11:00 +27°C° 0.1 mm 4 m/s 762 mmHg 72%
12:00 +28°C° 0.1 mm 5 m/s 761 mmHg 71%
13:00 +28°C° 0.1 mm 5 m/s 761 mmHg 72%
14:00 +27°C° 0.1 mm 5 m/s 760 mmHg 72%
15:00 +27°C° 0.1 mm 5 m/s 760 mmHg 72%
16:00 +27°C° 0 mm 5 m/s 760 mmHg 74%
17:00 +26°C° 0 mm 5 m/s 760 mmHg 76%
18:00 +26°C° 0 mm 5 m/s 760 mmHg 79%
19:00 +25°C° 0 mm 4 m/s 760 mmHg 80%
20:00 +25°C° 0 mm 4 m/s 760 mmHg 82%
21:00 +25°C° 0 mm 4 m/s 761 mmHg 83%
22:00 +23°C° 0 mm 4 m/s 761 mmHg 84%
23:00 +23°C° 0 mm 4 m/s 761 mmHg 85%
Arată mai mult